Preview of NWS' New Version of Forecast
This preview is not operational and should not be used for support decisions.

Regional Weather Roundup (RWR)

Issued by National Weather Service (NWS)

                            
000
ASUS45 KCYS 220010
RWRWY 

WYOMING REGIONAL WEATHER ROUNDUP
NATIONAL WEATHER SERVICE CHEYENNE WY
500 PM MST THU FEB 21 2019

NOTE:  "FAIR" INDICATES FEW OR NO CLOUDS BELOW 12,000 FEET
WITH NO SIGNIFICANT WEATHER AND/OR OBSTRUCTIONS TO VISIBILITY.

WYZ001-220100-
YELLOWSTONE NATIONAL PARK
  
CITY           SKY/WX    TMP DP  RH WIND       PRES   REMARKS
LK YELLOWSTONE   N/A     10  -4  53 CALM      29.71R                  
6HR MIN TEMP:   8; 6HR MAX TEMP:  14;                                

W YELLOWSTONE  NOT AVBL                                               

$$
WYZ002>013-054>058-071-098>099-220100-
NORTHERN WYOMING
  
CITY           SKY/WX    TMP DP  RH WIND       PRES   REMARKS
JACKSON        FAIR      21   3  45 CALM      29.73R                  
CODY           CLOUDY    14   7  73 NE13      29.93R WCI   0          
GREYBULL       FAIR      21   9  59 NW12      29.96R WCI   9          
6HR MIN TEMP:  19; 6HR MAX TEMP:  25;                                

WORLAND        MOCLDY    22  12  65 CALM      29.94R                  
6HR MIN TEMP:  18; 6HR MAX TEMP:  25; 6HR PCP: TRACE;                

SHERIDAN       CLOUDY    19  13  77 NW9       30.01R WCI   8          
6HR MIN TEMP:  19; 6HR MAX TEMP:  22; 6HR PCP: TRACE;                

BUFFALO        CLOUDY    15  10  80 N5        29.95R WCI   8          
6HR MIN TEMP:  15; 6HR MAX TEMP:  18; 6HR PCP: TRACE;                

GILLETTE       CLOUDY    17  11  77 NE6       29.98R WCI   9          
6HR MIN TEMP:  17; 6HR MAX TEMP:  21; 6HR PCP:  0.01;                

HULETT         CLOUDY    19  12  73 MISG      30.01                   
NEWCASTLE        N/A     19  12  73 NW5       29.99  WCI  13          

$$
WYZ014>020-022>026-101>103-220100-
CENTRAL WYOMING
  
CITY           SKY/WX    TMP DP  RH WIND       PRES   REMARKS
BIG PINEY      MOCLDY    12   5  73 W3        29.71R                  
6HR MIN TEMP:   4; 6HR MAX TEMP:  18; 6HR PCP: TRACE;                

PINEDALE       MOCLDY    12   5  73 NW7       29.71  WCI   2          
DUBOIS         FAIR      12   3  67 SE15      29.73  WCI  -4          
LANDER         LGT SNOW  16  10  77 N5        29.86R WCI   9          
6HR MIN TEMP:  15; 6HR MAX TEMP:  17; 6HR PCP:  0.04;                

RIVERTON       CLOUDY    17   8  67 NE10      29.86R WCI   5          
6HR MIN TEMP:  17; 6HR MAX TEMP:  19; 6HR PCP:  0.03;                

CASPER         FLURRIES  18  12  77 NE16      29.86R WCI   3          
6HR MIN TEMP:  18; 6HR MAX TEMP:  21; 6HR PCP:  0.01;                

DOUGLAS        LGT SNOW  20  15  81 E15       29.89R WCI   6          
6HR MIN TEMP:  20; 6HR MAX TEMP:  25; 6HR PCP: TRACE;                


$$
WYZ021-027>030-104>119-220100-
SOUTHERN WYOMING
  
CITY           SKY/WX    TMP DP  RH WIND       PRES   REMARKS
EVANSTON       CLOUDY    14   6  70 NE18G24   29.62S WCI  -3          
6HR MIN TEMP:   8; 6HR MAX TEMP:  15;                                

KEMMERER       FAIR      14   9  79 NE15G22   29.67  HAZE    WCI  -1  
ROCK SPRINGS   MIX PCPN  12   5  73 NE29      29.70R WCI  -9          
6HR MIN TEMP:  12; 6HR MAX TEMP:  14; 6HR PCP: TRACE;                

DIXON          FAIR      23  11  60 N3        29.67S                  
RAWLINS        CLOUDY    18  11  74 NE22G29   29.70R WCI   1          
6HR MIN TEMP:  17; 6HR MAX TEMP:  23;                                

SARATOGA       MOCLDY    23  12  63 NE5       29.67R WCI  17          
LARAMIE        FAIR      19   9  65 E15       29.69R WCI   5          
6HR MIN TEMP:  19; 6HR MAX TEMP:  24;                                

CHEYENNE       LGT SNOW  22  14  71 E13       29.78R WCI  10          
6HR MIN TEMP:  21; 6HR MAX TEMP:  26; 6HR PCP: TRACE;                

TORRINGTON     LGT SNOW  22  19  89 NE16      29.91R FOG     WCI   8  
6HR MIN TEMP:  22; 6HR MAX TEMP:  29; 6HR PCP: TRACE;                

PINE BLUFFS    FLURRIES  23  14  68 E14       29.85R WCI  11          

$$